Tracking 27126 objects as of 30-Mar-2023
HD Live streaming from Space Station
objects crossing your sky now

IRIDIUM 82

Track IRIDIUM 82 now!
10-day predictions
IRIDIUM 82 is classified as:


NORAD ID: 25467
Int'l Code: 1998-051A
Perigee: 468.2 km
Apogee: 689.4 km
Inclination: 86.4 °
Period: 96.1 minutes
Semi major axis: 6949 km
RCS: 4.1187 m2 (large)
Launch date: September 8, 1998
Source: United States (US)
Launch site: AIR FORCE WESTERN TEST RANGE (AFWTR)
Your satellite tracking list
Your tracking list is empty




NASA's NSSDC Master Catalog

Two Line Element Set (TLE):
1 25467U 98051A   23088.83501084  .00013467  00000-0  86240-3 0  9991
2 25467  86.3958 134.1235 0159182  43.1088 318.2480 14.98456669301563
Source of the keplerian elements: AFSPC